Weather History for KIKK - August, 2012

Change the Weather History Date:

Monday, August 20, 2012

  Actual Average Record
Temperature  
Mean Temperature 64 °F -  
Max Temperature 78 °F 81 °F 98 °F (2010)
Min Temperature 49 °F 59 °F 49 °F (1985)
Degree Days  
Heating Degree Days 2    
Growing Degree Days 14 (Base 50)    
Moisture  
Dew Point 52 °F    
Average Humidity 71    
Maximum Humidity 95    
Minimum Humidity 36    
Precipitation  
Precipitation 0.00 in - - ()
Sea Level Pressure  
Sea Level Pressure 29.97 in    
Wind  
Wind Speed 2 mph (ENE)    
Max Wind Speed 14 mph    
Max Gust Speed 18 mph    
Visibility 10 miles    
Events      
Averages and records for this station are not official NWS values.
T = Trace of Precipitation, MM = Missing Value Source: NWS Daily Summary

Daily Weather History Graph

Daily Weather History Graph

Search for Another Location

Airport or City:

Trip Planner

Search our weather history database for the weather conditions in past years. The results will help you decide how hot, cold, wet, or windy it might be!

Date:

Astronomy

Aug. 20, 2012 Rise Set
Actual Time 6:06 AM CDT 7:42 PM CDT
Civil Twilight 5:37 AM CDT 8:11 PM CDT
Nautical Twilight 5:02 AM CDT 8:46 PM CDT
Astronomical Twilight 4:24 AM CDT 9:23 PM CDT
Moon 9:30 AM CDT (8/20) 9:02 PM CDT (8/20)
Length of Visible Light 14h 33m
Length of Day
13h 35m
Waxing Crescent, 11% of the Moon is Illuminated
Aug 20
Waxing Crescent
Aug 24
First Quarter
Aug 31
Full
Sep 8
Last Quarter
Sep 15
New

Hourly Weather History & Observations

Time (CDT) Temp. Dew Point Humidity Pressure Visibility Wind Dir Wind Speed Gust Speed Precip Events Conditions
12:15 AM 54.7 °F 50.7 °F 86% 29.96 in 10.0 mi WSW 3.5 mph - N/A   Clear
12:35 AM 55.6 °F 51.3 °F 85% 29.96 in 10.0 mi Calm Calm - N/A   Clear
12:55 AM 53.4 °F 49.5 °F 86% 29.96 in 10.0 mi Calm Calm - N/A   Clear
1:15 AM 54.3 °F 50.4 °F 86% 29.95 in 10.0 mi Calm Calm - N/A   Clear
1:35 AM 52.5 °F 49.6 °F 90% 29.95 in 10.0 mi WSW 4.6 mph - N/A   Clear
1:55 AM 53.2 °F 50.2 °F 89% 29.95 in 10.0 mi Calm Calm - N/A   Scattered Clouds
2:15 AM 51.8 °F 47.7 °F 86% 29.95 in 10.0 mi Calm Calm - N/A   Scattered Clouds
2:35 AM 51.4 °F 48.9 °F 91% 29.95 in 10.0 mi Calm Calm - N/A   Scattered Clouds
2:55 AM 50.7 °F 47.8 °F 90% 29.95 in 10.0 mi Calm Calm - N/A   Scattered Clouds
3:15 AM 49.8 °F 47.1 °F 90% 29.95 in 10.0 mi Calm Calm - N/A   Clear
3:35 AM 50.5 °F 48.6 °F 93% 29.95 in 10.0 mi Calm Calm - N/A   Clear
3:55 AM 50.7 °F 48.9 °F 94% 29.95 in 10.0 mi Calm Calm - N/A   Scattered Clouds
4:15 AM 51.8 °F 49.6 °F 92% 29.95 in 10.0 mi Calm Calm - N/A   Scattered Clouds
4:35 AM 49.8 °F 47.3 °F 91% 29.96 in 10.0 mi Calm Calm - N/A   Mostly Cloudy
4:55 AM 50.5 °F 49.1 °F 95% 29.96 in 7.0 mi Calm Calm - N/A   Scattered Clouds
5:15 AM 50.2 °F 48.6 °F 94% 29.96 in 3.0 mi Calm Calm - N/A   Scattered Clouds
5:35 AM 49.1 °F 47.3 °F 93% 29.96 in 7.0 mi Calm Calm - N/A   Mostly Cloudy
5:55 AM 49.8 °F 48.2 °F 94% 29.97 in 7.0 mi Calm Calm - N/A   Overcast
6:15 AM 50.4 °F 48.7 °F 94% 29.98 in 10.0 mi Calm Calm - N/A   Mostly Cloudy
6:35 AM 50.5 °F 49.1 °F 95% 29.99 in 7.0 mi Calm Calm - N/A   Scattered Clouds
6:55 AM 52.5 °F 50.9 °F 94% 29.99 in 7.0 mi Calm Calm - N/A   Scattered Clouds
7:15 AM 55.0 °F 53.2 °F 94% 29.99 in 10.0 mi Calm Calm - N/A   Mostly Cloudy
7:35 AM 56.3 °F 53.6 °F 91% 29.99 in 10.0 mi Calm Calm - N/A   Overcast
7:55 AM 56.7 °F 53.8 °F 90% 30.00 in 10.0 mi Calm Calm - N/A   Mostly Cloudy
8:15 AM 58.3 °F 55.4 °F 90% 30.00 in 10.0 mi Calm Calm - N/A   Overcast
8:35 AM 60.4 °F 56.1 °F 86% 30.00 in 10.0 mi West 3.5 mph - N/A   Overcast
8:55 AM 60.8 °F 56.1 °F 85% 30.00 in 10.0 mi Calm Calm - N/A   Mostly Cloudy
9:15 AM 63.1 °F 57.2 °F 81% 29.99 in 10.0 mi Calm Calm - N/A   Scattered Clouds
9:35 AM 65.5 °F 57.2 °F 75% 30.00 in 10.0 mi West 3.5 mph - N/A   Clear
9:55 AM 67.5 °F 56.3 °F 67% 29.99 in 10.0 mi West 4.6 mph - N/A   Clear
10:15 AM 69.6 °F 55.2 °F 60% 29.99 in 10.0 mi Calm Calm - N/A   Clear
10:35 AM 71.4 °F 54.3 °F 55% 29.99 in 10.0 mi Calm Calm - N/A   Clear
10:55 AM 72.9 °F 53.1 °F 50% 29.99 in 10.0 mi WNW 3.5 mph - N/A   Clear
11:15 AM 73.9 °F 51.3 °F 45% 29.99 in 10.0 mi NW 3.5 mph - N/A   Clear
11:35 AM 74.8 °F 51.4 °F 44% 29.98 in 10.0 mi WNW 3.5 mph - N/A   Clear
11:55 AM 75.6 °F 50.2 °F 41% 29.98 in 10.0 mi NNE 4.6 mph - N/A   Clear
12:15 PM 76.1 °F 50.4 °F 40% 29.97 in 10.0 mi Calm Calm - N/A   Clear
12:35 PM 76.6 °F 50.5 °F 40% 29.97 in 10.0 mi North 4.6 mph - N/A   Scattered Clouds
12:55 PM 76.8 °F 50.7 °F 40% 29.96 in 10.0 mi Calm Calm - N/A   Scattered Clouds
1:15 PM 75.2 °F 50.0 °F 41% 29.96 in 10.0 mi Calm Calm - N/A   Mostly Cloudy
1:35 PM 78.4 °F 49.6 °F 36% 29.95 in 10.0 mi NW 4.6 mph - N/A   Scattered Clouds
1:55 PM 75.9 °F 50.4 °F 41% 29.95 in 10.0 mi NW 3.5 mph - N/A   Clear
2:15 PM 77.9 °F 49.1 °F 36% 29.94 in 10.0 mi WSW 4.6 mph - N/A   Clear
2:35 PM 74.7 °F 52.7 °F 46% 29.95 in 10.0 mi WSW 8.1 mph - N/A   Mostly Cloudy
2:55 PM 77.0 °F 53.2 °F 44% 29.94 in 10.0 mi WSW 5.8 mph - N/A   Scattered Clouds
3:15 PM 75.0 °F 53.2 °F 47% 29.96 in 10.0 mi North 11.5 mph 16.1 mph N/A   Scattered Clouds
3:35 PM 71.1 °F 51.1 °F 49% 29.95 in 10.0 mi NNE 10.4 mph - N/A   Mostly Cloudy
3:55 PM 73.8 °F 53.2 °F 49% 29.95 in 10.0 mi NE 13.8 mph 18.4 mph N/A   Scattered Clouds
4:15 PM 74.8 °F 54.5 °F 49% 29.96 in 10.0 mi NE 10.4 mph - N/A   Scattered Clouds
4:35 PM 75.4 °F 53.6 °F 47% 29.96 in 10.0 mi ENE 10.4 mph - N/A   Clear
4:55 PM 73.6 °F 54.1 °F 50% 29.95 in 10.0 mi ENE 10.4 mph - N/A   Mostly Cloudy
5:15 PM 73.6 °F 52.2 °F 47% 29.95 in 10.0 mi NE 9.2 mph - N/A   Scattered Clouds
5:35 PM 73.6 °F 52.7 °F 48% 29.96 in 10.0 mi East 8.1 mph - N/A   Clear
5:55 PM 72.5 °F 54.7 °F 53% 29.96 in 10.0 mi East 5.8 mph - N/A   Clear
6:15 PM 71.8 °F 55.4 °F 56% 29.96 in 10.0 mi East 5.8 mph - N/A   Clear
6:35 PM 69.3 °F 54.9 °F 60% 29.97 in 10.0 mi East 4.6 mph - N/A   Scattered Clouds
6:55 PM 69.4 °F 54.9 °F 60% 29.97 in 10.0 mi SE 4.6 mph - N/A   Scattered Clouds
7:15 PM 68.0 °F 54.1 °F 61% 29.98 in 10.0 mi SSE 3.5 mph - N/A   Clear
7:35 PM 66.6 °F 55.6 °F 68% 29.97 in 10.0 mi SE 3.5 mph - N/A   Clear
7:55 PM 62.6 °F 55.6 °F 78% 29.98 in 10.0 mi East 3.5 mph - N/A   Clear
8:15 PM 62.2 °F 55.4 °F 78% 29.99 in 10.0 mi East 3.5 mph - N/A   Clear
8:35 PM 61.9 °F 56.5 °F 82% 29.99 in 10.0 mi Calm Calm - N/A   Clear
8:55 PM 59.5 °F 54.9 °F 84% 30.00 in 10.0 mi Calm Calm - N/A   Clear
9:15 PM 59.7 °F 54.9 °F 84% 30.00 in 10.0 mi ESE 5.8 mph - N/A   Clear
9:35 PM 59.2 °F 53.2 °F 81% 30.00 in 10.0 mi East 4.6 mph - N/A   Clear
9:55 PM 60.1 °F 54.0 °F 80% 30.01 in 10.0 mi SE 3.5 mph - N/A   Clear
10:15 PM 59.7 °F 53.6 °F 80% 30.01 in 10.0 mi SE 4.6 mph - N/A   Clear
10:35 PM 57.2 °F 52.0 °F 83% 30.01 in 10.0 mi East 3.5 mph - N/A   Clear
10:55 PM 57.2 °F 53.6 °F 88% 30.01 in 10.0 mi Calm Calm - N/A   Clear
11:15 PM 55.2 °F 52.3 °F 90% 30.01 in 10.0 mi Calm Calm - N/A   Clear
11:55 PM 54.5 °F 51.4 °F 89% 30.03 in 10.0 mi Calm Calm - N/A   Clear